Weather History for KABI - April, 2012

Change the Weather History Date:

Wednesday, April 25, 2012

  Actual Average Record
Temperature  
Mean Temperature 86 °F 67 °F  
Max Temperature 104 °F 80 °F 104 °F (2012)
Min Temperature 68 °F 55 °F 38 °F (1913)
Degree Days  
Heating Degree Days 0 2  
Month to date heating degree days 17 103  
Since 1 July heating degree days 2084 2534  
Cooling Degree Days 21 4  
Month to date cooling degree days 135 74  
Year to date cooling degree days 218 108  
Growing Degree Days 36 (Base 50)    
Moisture  
Dew Point 52 °F    
Average Humidity 38    
Maximum Humidity 66    
Minimum Humidity 9    
Precipitation  
Precipitation 0.00 in 0.06 in 2.50 in (1922)
Month to date precipitation 0.87 1.28  
Year to date precipitation 6.55 5.40  
Sea Level Pressure  
Sea Level Pressure 29.69 in    
Wind  
Wind Speed 15 mph (SSW)    
Max Wind Speed 22 mph    
Max Gust Speed 29 mph    
Visibility 10 miles    
Events      
T = Trace of Precipitation, MM = Missing Value Source: NWS Daily Summary

Daily Weather History Graph

Daily Weather History Graph

Search for Another Location

Airport or City:

Trip Planner

Search our weather history database for the weather conditions in past years. The results will help you decide how hot, cold, wet, or windy it might be!

Date:

Astronomy

Apr. 25, 2012 Rise Set
Actual Time 6:57 AM CDT 8:15 PM CDT
Civil Twilight 6:31 AM CDT 8:41 PM CDT
Nautical Twilight 6:01 AM CDT 9:12 PM CDT
Astronomical Twilight 5:29 AM CDT 9:44 PM CDT
Moon 9:52 AM CDT (4/25) No Moon Set
Length of Visible Light 14h 09m
Length of Day
13h 18m
Waxing Crescent, 17% of the Moon is Illuminated
Apr 25
Waxing Crescent
Apr 29
First Quarter
May 5
Full
May 12
Last Quarter
May 20
New

Hourly Weather History & Observations

Time (CDT) Temp. Heat Index Dew Point Humidity Pressure Visibility Wind Dir Wind Speed Gust Speed Precip Events Conditions
12:52 AM 77.0 °F - 52.0 °F 42% 29.75 in 10.0 mi South 16.1 mph 27.6 mph N/A   Clear
1:52 AM 75.9 °F - 52.0 °F 43% 29.74 in 10.0 mi SSW 19.6 mph 26.5 mph N/A   Clear
2:52 AM 73.9 °F - 53.1 °F 48% 29.72 in 10.0 mi South 13.8 mph - N/A   Clear
3:52 AM 72.0 °F - 53.1 °F 51% 29.72 in 10.0 mi South 10.4 mph - N/A   Clear
4:52 AM 72.0 °F - 54.0 °F 53% 29.72 in 10.0 mi South 16.1 mph 24.2 mph N/A   Clear
5:52 AM 70.0 °F - 55.0 °F 59% 29.73 in 10.0 mi South 15.0 mph - N/A   Clear
6:52 AM 69.1 °F - 55.9 °F 63% 29.73 in 10.0 mi South 12.7 mph 19.6 mph N/A   Clear
7:52 AM 69.1 °F - 57.9 °F 68% 29.75 in 10.0 mi SSW 11.5 mph 18.4 mph N/A   Clear
8:52 AM 72.0 °F - 59.0 °F 64% 29.75 in 10.0 mi SSW 12.7 mph - N/A   Clear
9:52 AM 77.0 °F - 60.1 °F 56% 29.75 in 10.0 mi SSW 13.8 mph 20.7 mph N/A   Clear
10:52 AM 82.0 °F 82.4 °F 60.1 °F 47% 29.74 in 10.0 mi SSW 16.1 mph 21.9 mph N/A   Clear
11:52 AM 87.1 °F 86.7 °F 60.1 °F 40% 29.73 in 10.0 mi SW 16.1 mph 21.9 mph N/A   Clear
12:52 PM 91.9 °F 91.2 °F 59.0 °F 33% 29.72 in 10.0 mi SSW 15.0 mph - N/A   Clear
1:52 PM 96.1 °F 94.8 °F 57.0 °F 27% 29.68 in 10.0 mi SSW 16.1 mph 23.0 mph N/A   Clear
2:52 PM 99.0 °F 96.5 °F 53.1 °F 21% 29.66 in 10.0 mi South 10.4 mph 21.9 mph N/A   Clear
3:52 PM 102.0 °F - 51.1 °F 18% 29.63 in 10.0 mi SSW 15.0 mph - N/A   Clear
4:52 PM 102.9 °F - 45.0 °F 14% 29.60 in 10.0 mi SW 18.4 mph 23.0 mph N/A   Clear
5:52 PM 102.0 °F - 33.1 °F 9% 29.60 in 10.0 mi WSW 8.1 mph 21.9 mph N/A   Clear
6:52 PM 100.9 °F - 39.9 °F 12% 29.59 in 10.0 mi SSW 13.8 mph - N/A   Clear
7:52 PM 93.9 °F - 51.1 °F 23% 29.60 in 10.0 mi South 12.7 mph - N/A   Clear
8:52 PM 90.0 °F - 48.9 °F 24% 29.61 in 10.0 mi South 13.8 mph - N/A   Clear
9:52 PM 90.0 °F - 46.0 °F 22% 29.63 in 10.0 mi SSW 17.3 mph - N/A   Clear
10:52 PM 87.1 °F - 46.9 °F 25% 29.66 in 10.0 mi SSW 16.1 mph 26.5 mph N/A   Clear
11:52 PM 84.0 °F - 48.0 °F 28% 29.67 in 10.0 mi SSW 18.4 mph 27.6 mph N/A   Clear